TimeCDT,TemperatureF,Dew PointF,Humidity,Sea Level PressureIn,VisibilityMPH,Wind Direction,Wind SpeedMPH,Gust SpeedMPH,PrecipitationIn,Events,Conditions,WindDirDegrees,DateUTC
12:54 AM,51.1,43.0,74,29.92,10.0,Calm,Calm,-,N/A,,Clear,0,2013-10-21 05:54:00
1:54 AM,53.1,43.0,69,29.92,10.0,Calm,Calm,-,N/A,,Clear,0,2013-10-21 06:54:00
2:54 AM,52.0,43.0,71,29.91,10.0,SW,6.9,-,N/A,,Clear,230,2013-10-21 07:54:00
3:54 AM,48.0,41.0,77,29.91,10.0,SSW,3.5,-,N/A,,Clear,200,2013-10-21 08:54:00
4:54 AM,46.9,41.0,80,29.92,10.0,SSW,3.5,-,N/A,,Clear,210,2013-10-21 09:54:00
5:54 AM,45.0,39.9,82,29.94,10.0,Calm,Calm,-,N/A,,Clear,0,2013-10-21 10:54:00
6:54 AM,45.0,42.1,90,29.95,10.0,Calm,Calm,-,N/A,,Clear,0,2013-10-21 11:54:00
7:54 AM,48.0,43.0,83,29.97,10.0,Calm,Calm,-,N/A,,Overcast,0,2013-10-21 12:54:00
8:54 AM,52.0,44.1,74,30.01,10.0,North,9.2,-,N/A,,Overcast,350,2013-10-21 13:54:00
9:54 AM,48.9,39.9,71,30.03,10.0,North,8.1,-,N/A,,Overcast,360,2013-10-21 14:54:00
10:54 AM,50.0,39.9,68,30.04,10.0,NNW,8.1,-,N/A,,Overcast,340,2013-10-21 15:54:00
11:54 AM,52.0,37.9,59,30.05,10.0,NNW,11.5,-,N/A,,Partly Cloudy,330,2013-10-21 16:54:00
12:54 PM,52.0,37.0,57,30.03,10.0,NW,13.8,-,N/A,,Clear,310,2013-10-21 17:54:00
1:54 PM,53.1,37.0,55,30.02,10.0,NW,10.4,-,N/A,,Partly Cloudy,310,2013-10-21 18:54:00
2:54 PM,54.0,35.1,49,30.01,10.0,NW,9.2,-,N/A,,Clear,310,2013-10-21 19:54:00
3:54 PM,54.0,33.1,45,30.02,10.0,NW,10.4,-,N/A,,Clear,310,2013-10-21 20:54:00
4:54 PM,53.1,30.9,43,30.02,10.0,NNW,9.2,-,N/A,,Clear,330,2013-10-21 21:54:00
5:54 PM,50.0,32.0,50,30.04,10.0,NW,9.2,-,N/A,,Clear,310,2013-10-21 22:54:00
6:54 PM,46.9,33.1,59,30.05,10.0,NW,6.9,-,N/A,,Clear,310,2013-10-21 23:54:00
7:54 PM,43.0,34.0,71,30.05,10.0,NW,3.5,-,N/A,,Clear,320,2013-10-22 00:54:00
8:54 PM,44.1,35.1,71,30.06,10.0,WNW,3.5,-,N/A,,Clear,300,2013-10-22 01:54:00
9:54 PM,39.0,34.0,82,30.07,10.0,West,4.6,-,N/A,,Clear,260,2013-10-22 02:54:00
10:54 PM,37.0,32.0,82,30.07,10.0,Calm,Calm,-,N/A,,Clear,0,2013-10-22 03:54:00
11:54 PM,35.1,30.9,85,30.06,10.0,Calm,Calm,-,N/A,,Clear,0,2013-10-22 04:54:00